Palma de Mallorca, Spain

10:22 PM CEST on April 19, 2018 (GMT +0200)
Palma De Mallorca

Weather History for LEPA - March, 2013

Change the Weather History Date:

Thursday, March 28, 2013

  Actual Average Record
Temperature  
Mean Temperature 60 °F -  
Max Temperature 67 °F 66 °F 131 °F (1998)
Min Temperature 53 °F 46 °F 33 °F (1999)
Degree Days  
Heating Degree Days 5    
Growing Degree Days 10 (Base 50)    
Moisture  
Dew Point 55 °F    
Average Humidity 83    
Maximum Humidity 100    
Minimum Humidity 53    
Precipitation  
Precipitation 0.00 in 0.05 in - ()
Sea Level Pressure  
Sea Level Pressure 29.72 in    
Wind  
Wind Speed 6 mph ()    
Max Wind Speed 18 mph    
Max Gust Speed -    
Visibility 6.0 miles    
Events      
Averages and records for this station are not official NWS values.
T = Trace of Precipitation, MM = Missing Value Source: Averaged Metar Reports

Daily Weather History Graph

Daily Weather History Graph

Search for Another Location

Airport or City:

Astronomy

Mar. 28, 2013 Rise Set
Actual Time 6:39 AM CET 7:09 PM CET
Civil Twilight 6:12 AM CET 7:36 PM CET
Nautical Twilight 5:40 AM CET 8:08 PM CET
Astronomical Twilight 5:08 AM CET 8:40 PM CET
Moon 8:42 PM CET (3/28) 6:58 AM CET (3/28)
Length of Visible Light 13h 23m
Length of Day
12h 29m
Full, 99% of the Moon is Illuminated
Mar 28
Full
Apr 3
Last Quarter
Apr 10
New
Apr 18
First Quarter
Apr 25
Full

Hourly Weather History & Observations

Time (CET) Temp. Dew Point Humidity Pressure Visibility Wind Dir Wind Speed Gust Speed Precip Events Conditions
12:00 AM 59.0 °F 57.2 °F 94% 29.71 in 5.6 mi SSW 4.6 mph - N/A   Partly Cloudy
12:30 AM 59.0 °F 57.2 °F 94% 29.68 in 6.2 mi SSW 3.5 mph - N/A   Partly Cloudy
1:00 AM 58 °F 55 °F 85% 29.70 in 6 mi Calm Calm - -   Mist
1:00 AM 59.0 °F 57.2 °F 94% 29.68 in 5.6 mi Calm Calm - N/A   Partly Cloudy
1:30 AM 57.2 °F 55.4 °F 94% 29.68 in 5.6 mi NNE 2.3 mph - N/A   Partly Cloudy
2:00 AM 57.2 °F 55.4 °F 94% 29.65 in 5.6 mi ESE 1.2 mph - N/A   Partly Cloudy
2:30 AM 57.2 °F 55.4 °F 94% 29.65 in 5.0 mi SSE 3.5 mph - N/A   Partly Cloudy
3:00 AM 57.2 °F 57.2 °F 100% 29.65 in 5.0 mi South 4.6 mph - N/A   Scattered Clouds
3:30 AM 59.0 °F 57.2 °F 94% 29.65 in 5.0 mi Variable 2.3 mph - N/A   Mostly Cloudy
4:00 AM 59.0 °F 57.2 °F 94% 29.65 in 5.6 mi Variable 2.3 mph - N/A   Scattered Clouds
4:30 AM 59.0 °F 57.2 °F 94% 29.65 in 5.6 mi SW 4.6 mph - N/A   Scattered Clouds
5:00 AM 59.0 °F 57.2 °F 94% 29.65 in 5.6 mi SW 3.5 mph - N/A   Mostly Cloudy
5:30 AM 59.0 °F 57.2 °F 94% 29.65 in 5.6 mi SW 3.5 mph - N/A   Mostly Cloudy
6:00 AM 59.0 °F 55.4 °F 88% 29.65 in 5.6 mi SW 3.5 mph - N/A   Mostly Cloudy
6:30 AM 57.2 °F 55.4 °F 94% 29.65 in 5.0 mi SSW 3.5 mph - N/A   Scattered Clouds
7:00 AM 57 °F 54 °F 87% 29.68 in 4 mi SW 6.9 mph - -   Mist
7:00 AM 57.2 °F 55.4 °F 94% 29.68 in 4.3 mi SW 4.6 mph - N/A   Scattered Clouds
7:30 AM 59.0 °F 55.4 °F 88% 29.68 in 4.3 mi SSW 3.5 mph - N/A   Scattered Clouds
8:00 AM 59.0 °F 57.2 °F 94% 29.68 in 3.1 mi SSW 5.8 mph - N/A   Scattered Clouds
8:30 AM 59.0 °F 57.2 °F 94% 29.68 in 3.1 mi SSW 6.9 mph - N/A   Scattered Clouds
9:00 AM 60.8 °F 57.2 °F 88% 29.71 in 4.3 mi SW 8.1 mph - N/A   Scattered Clouds
9:30 AM 60.8 °F 57.2 °F 88% 29.71 in 5.0 mi SW 8.1 mph - N/A   Partly Cloudy
10:00 AM 62.6 °F 57.2 °F 82% 29.71 in 6.2 mi SW 9.2 mph - N/A   Partly Cloudy
10:30 AM 62.6 °F 55.4 °F 77% 29.71 in 6.2 mi SW 10.4 mph - N/A   Partly Cloudy
11:00 AM 64.4 °F 55.4 °F 73% 29.71 in 6.2 mi SW 13.8 mph - N/A   Partly Cloudy
11:30 AM 64.4 °F 55.4 °F 73% 29.71 in 6.2 mi SW 12.7 mph - N/A   Partly Cloudy
12:00 PM 64.4 °F 55.4 °F 73% 29.71 in 6.2 mi SW 15.0 mph - N/A   Partly Cloudy
12:30 PM 64.4 °F 55.4 °F 73% 29.71 in 6.2 mi SW 16.1 mph - N/A   Partly Cloudy
1:00 PM 65 °F 52 °F 53% 29.73 in 16 mi SW 17.3 mph - -   Scattered Clouds
1:00 PM 64.4 °F 55.4 °F 73% 29.71 in 6.2 mi SW 15.0 mph - N/A   Partly Cloudy
1:30 PM 64.4 °F 55.4 °F 73% 29.71 in 6.2 mi SW 15.0 mph - N/A   Partly Cloudy
2:00 PM 66.2 °F 55.4 °F 68% 29.71 in 6.2 mi WSW 18.4 mph - N/A   Partly Cloudy
2:30 PM 66.2 °F 55.4 °F 68% 29.74 in 6.2 mi WSW 18.4 mph - N/A   Partly Cloudy
3:30 PM 64.4 °F 55.4 °F 73% 29.74 in 6.2 mi SW 18.4 mph - N/A   Partly Cloudy
4:00 PM 64.4 °F 55.4 °F 73% 29.74 in 6.2 mi SW 18.4 mph - N/A   Partly Cloudy
4:30 PM 66.2 °F 53.6 °F 64% 29.77 in 6.2 mi SW 13.8 mph - N/A   Partly Cloudy
5:30 PM 64.4 °F 53.6 °F 68% 29.77 in 6.2 mi SW 10.4 mph - N/A   Partly Cloudy
6:00 PM 64.4 °F 53.6 °F 68% 29.77 in 6.2 mi SW 9.2 mph - N/A   Partly Cloudy
7:00 PM 61 °F 50 °F 59% 29.80 in 16 mi SSW 11.5 mph - -   Clear
7:00 PM 60.8 °F 53.6 °F 77% 29.77 in - SW 8.1 mph - N/A   Clear
7:30 PM 60.8 °F 53.6 °F 77% 29.80 in - Variable 1.2 mph - N/A   Clear
8:00 PM 59.0 °F 53.6 °F 82% 29.80 in - Variable 2.3 mph - N/A   Clear
8:30 PM 60.8 °F 55.4 °F 82% 29.83 in - SSE 3.5 mph - N/A   Clear
9:00 PM 59.0 °F 53.6 °F 82% 29.83 in - South 4.6 mph - N/A   Clear
9:30 PM 57.2 °F 53.6 °F 88% 29.86 in - SSE 2.3 mph - N/A   Clear
10:30 PM 57.2 °F 53.6 °F 88% 29.86 in - South 4.6 mph - N/A   Clear
11:00 PM 53.6 °F 51.8 °F 94% 29.86 in - SSE 4.6 mph - N/A   Clear
11:30 PM 53.6 °F 50.0 °F 88% 29.86 in - Variable 1.2 mph - N/A   Clear